Flag for U.S.A. Weather past 2 weeks in Kailua-Kona, Hawaii, U.S.A.

Now
80 °F

Passing clouds.


Feels Like: 82 °F
Forecast: 65 / 79 °F
Wind: 9 mph from South

Location: Keahole Airport

Current Time: Mar 2, 2015 at 9:37:37 AM

Latest Report: Mar 2, 2015 at 8:53 AM


Visibility: 10 mi

Pressure: 29.99 "Hg

Humidity: 60%

Dew point: 65 °F

Location of Kailua-KonaLocation

Historic Weather in Kailua-Kona — Graph

°F

Kailua-Kona temperature yesterday

Maximum temperature yesterday: 84 °F (at 2:53 PM)
Minimum temperature yesterday: 71 °F (at 6:53 AM)
Average temperature yesterday: 78 °F

Past Weeks' High & Low Weather Summary

 TemperatureHumidityPressure
High85 °F (Feb 20, 10:53 AM)85% (Feb 16, 2:53 AM)30.04 "Hg (Feb 16, 2:53 AM)
Low65 °F (Feb 16, 6:53 AM)45% (Feb 20, 9:53 AM)29.84 "Hg (Feb 15, 3:53 PM)
Average77 °F68%29.95 "Hg
* Reported Feb 15 7:32 AM — Mar 2 7:53 AM, Kailua-Kona, Weather by CustomWeather, © 2015

Note: Actual official high and low records may vary slightly from our data, if they occured in-between our weather recording intervals... More about our weather records

Advertising

Kailua-Kona weather history for previous 24 hours

 ConditionsComfort  
Time TempWeatherWind HumidityBarometerVisibility
7:53 AM
Mon, Mar 2
75 °FSunny.3 mph71%29.97 "Hg10 mi
6:53 AM72 °FPassing clouds.3 mph73%29.97 "Hg10 mi
5:53 AM72 °FClear.7 mph71%29.94 "Hg10 mi
4:53 AM72 °FClear.5 mph71%29.92 "Hg10 mi
3:53 AM73 °FClear.No wind69%29.91 "Hg10 mi
2:53 AM75 °FClear.No wind66%29.90 "Hg10 mi
1:53 AM74 °FClear.6 mph69%29.92 "Hg10 mi
12:53 AM75 °FClear.7 mph60%29.95 "Hg10 mi
11:53 PM
Sun, Mar 1
76 °FClear.13 mph60%29.97 "Hg10 mi
10:53 PM76 °FClear.6 mph72%29.98 "Hg10 mi
9:53 PM78 °FClear.7 mph60%29.99 "Hg10 mi
8:53 PM77 °FClear.6 mph69%29.98 "Hg10 mi
7:53 PM79 °FPassing clouds.5 mph72%29.95 "Hg10 mi
6:53 PM79 °FClear.No wind67%29.93 "Hg10 mi
5:53 PM81 °FLight rain. Mostly cloudy.3 mph62%29.92 "Hg10 mi
4:53 PM82 °FOvercast.6 mph58%29.90 "Hg10 mi
3:53 PM84 °FPartly sunny.10 mph59%29.89 "Hg10 mi
2:53 PM84 °FSunny.9 mph57%29.90 "Hg10 mi
1:53 PM83 °FPassing clouds.9 mph59%29.91 "Hg10 mi
12:53 PM83 °FPassing clouds.10 mph63%29.92 "Hg10 mi
11:53 AM83 °FSunny.10 mph61%29.95 "Hg10 mi
10:53 AM81 °FPassing clouds.7 mph65%29.98 "Hg10 mi
9:53 AM80 °FSunny.8 mph69%29.98 "Hg10 mi
Weather by CustomWeather, © 2015

See weather overviewHow to use our weather pages